Probability
0 0 0 0 0 0 0 0 0 0 0 0 0 0 0 0 0 0 0 0 0 0 0 0 0 0 0 0 0 0 0 0 0 0 0 0 0 0 0 0 0 0 0 0
0 0 0 0 0 0 0 0 0 0 0 0 0 0 0 0 0 0 0 0 0 0 0 0 0 0 0 0 0 0 0 0 0 0 0 0 0 0 0 0 0 0 0 0
0 0 0 0 0 0 0 0 0 0 0 0 0 0 0 0 0 0 0 0 0 0 0 0 0 0 0 0 0 0 0 0 0 0 0 0 0 0 0 0 0 0 0 0
0 0 0 0 0 0 0 0 0 0 0 0 0 0 0 0 0 0 0 0 0 0 0 0 0 0 0 0 0 0 0 0 0 0 0 0 0 0 0 0 0 0 0 0
0 0 0 0 0 0 0 0 0 0 0 0 0 0 0 0 0 0 0 0 0 0 0 0 0 0 0 0 0 0 0 0 0 0 0 0 0 0 0 0 0 0 0 0
0 0 0 0 0 0 0 0 0 0 0 0 0 0 0 0 0 0 0 0 0 0 0 0 0 0 0 0 0 0 0 0 0 0 0 0 0 0 0 0 0 0 0 0
0 0 0 0 0 0 0 0 0 0 0 0 0 0 0 0 0 0 0 0 0 0 0 0 0 0 0 0 0 0 0 0 0 0 0 0 0 0 0 0 0 0 0 0
0 0 0 0 0 0 0 0 0 0 0 0 0 0 0 0 0 0 0 0 0 0 0 0 0 0 0 0 0 0 0 0 0 0 0 0 0 0 0 0 0 0 0 0
0 0 0 0 0 0 0 0 0 0 0 0 0 0 0 0 0 0 0 0 0 0 0 0 0 0 0 0 0 0 0 0 0 0 0 0 0 0 0 0 0 0 0 0
0 0 0 0 0 0 0 0 0 0 0 0 0 0 0 0 0 0 0 0 0 0 0 0 0 0 0 0 0 0 0 0 0 0 0 0 0 0 0 0 0 0 0 0
0 0 0 0 0 0 0 0 0 0 0 0 0 0 0 0 0 0 0 0 0 0 0 0 0 0 0 0 0 0 0 0 0 0 0 0 0 0 0 0 0 0 0 0
0 0 0 0 0 0 0 0 0 0 0 0 0 0 0 0 0 0 0 0 0 0 0 0 0 0 0 0 0 0 0 0 0 0 0 0 0 0 0 0 0 0 0 0
0 0 0 0 0 0 0 0 0 0 0 0 0 0 0 0 0 0 0 0 0 0 0 0 0 0 0 0 0 0 0 0 0 0 0 0 0 0 0 0 0 0 0 0
0 0 0 0 0 0 0 0 0 0 0 0 0 0 0 0 0 0 0 0 0 0 0 0 0 0 0 0 0 0 0 0 0 0 0 0 0 0 0 0 0 0 0 0
0 0 0 0 0 0 0 0 0 0 0 0 0 0 0 0 0 0 0 0 0 0 0 0 0 0 0 0 0 0 0 0 0 0 0 0 0 0 0 0 0 0 0 0
0 0 0 0 0 0 0 0 0 0 0 0 0 0 0 0 0 0 0 0 0 0 0 0 0 0 0 0 0 0 0 0 0 0 0 0 0 0 0 0 0 0 0 0
0 0 0 0 0 0 0 0 0 0 0 0 0 0 0 0 0 0 0 0 0 0 0 0 0 0 0 0 0 0 0 0 0 0 0 0 0 0 0 0 0 0 0 0
0 0 0 0 0 0 0 0 0 0 0 0 0 0 0 0 0 0 0 0 0 0 0 0 0 0 0 0 0 0 0 0 0 0 0 0 0 0 0 0 0 0 0 0
0 0 0 0 0 0 0 0 0 0 0 0 0 0 0 0 0 0 0 0 0 0 0 0 0 0 0 0 0 0 0 0 0 0 0 0 0 0 0 0 0 0 0 0
0 0 0 0 0 0 0 0 0 0 0 0 0 0 0 0 0 0 0 0 0 0 0 0 0 0 0 0 0 0 0 0 0 0 0 0 0 0 0 0 0 0 0 0
0 0 0 0 0 0 0 0 0 0 0 0 0 0 0 0 0 0 0 0 0 0 0 0 0 0 0 0 0 0 0 0 0 0 0 0 0 0 0 0 0 0 0 0
0 0 0 0 0 0 0 0 0 0 0 0 0 0 0 0 0 0 0 0 0 0 0 0 0 0 0 0 0 0 0 0 0 0 0 0 0 0 0 0 0 0 0 0
0 0 0 0 0 0 0 0 0 0 0 0 0 0 0 0 0 0 0 0 0 0 0 0 0 0 0 0 0 0 0 0 0 0 0 0 0 0 0 0 0 0 0 0
0 0 0 0 0 0 0 0 0 0 0 0 0 0 0 0 0 0 0 0 0 0 0 0 0 0 0 0 0 0 0 0 0 0 0 0 0 0 0 0 0 0 0 0
0 0 0 0 0 0 0 0 0 0 0 0 0 0 0 0 0 0 0 0 0 0 0 0 0 0 0 0 0 0 0 0 0 0 0 0 0 0 0 0 0 0 0 0
0 0 0 0 0 0 0 0 0 0 0 0 0 0 0 0 0 0 0 0 0 0 0 0 0 0 0 0 0 0 0 0 0 0 0 0 0 0 0 0 0 0 0 0
0 0 0 0 0 0 0 0 0 0 0 0 0 0 0 0 0 0 0 0 0 0 0 0 0 0 0 0 0 0 0 0 0 0 0 0 0 0 0 0 0 0 0 0
Height
5852 5850 5847 5845 5843 5840 5838 5835 5831 5827 5822 5817 5812 5806 5800 5794 5787 5779 5771 5762 5753 5744 5736 5727 5719 5710 5702 5694 5686 5677 5669 5660 5650 5641 5631 5622 5612 5603 5595 5588 5583 5581 5580 5582
5849 5847 5845 5842 5840 5837 5834 5830 5827 5822 5818 5813 5807 5801 5795 5788 5781 5773 5764 5755 5746 5737 5728 5719 5710 5701 5693 5684 5675 5666 5657 5647 5636 5626 5615 5604 5593 5583 5574 5566 5560 5557 5556 5557
5847 5844 5842 5840 5837 5833 5830 5826 5822 5818 5814 5807 5802 5796 5789 5782 5775 5766 5757 5748 5739 5729 5720 5711 5701 5692 5683 5674 5665 5655 5645 5634 5623 5612 5600 5588 5576 5565 5555 5547 5540 5536 5534 5535
5844 5842 5839 5838 5833 5830 5827 5822 5818 5813 5808 5803 5797 5791 5784 5777 5768 5760 5751 5742 5732 5722 5712 5703 5693 5683 5673 5664 5654 5644 5634 5622 5611 5599 5587 5574 5562 5550 5539 5530 5523 5519 5517 5517
5840 5838 5836 5833 5830 5826 5822 5819 5814 5809 5804 5798 5792 5785 5778 5771 5762 5753 5743 5734 5724 5713 5704 5694 5684 5674 5665 5655 5645 5634 5624 5612 5600 5587 5576 5563 5551 5539 5528 5518 5511 5506 5503 5503
5836 5834 5831 5829 5825 5821 5819 5814 5810 5804 5799 5793 5787 5781 5773 5764 5755 5746 5736 5727 5716 5706 5696 5686 5676 5666 5657 5647 5636 5626 5615 5603 5590 5578 5566 5554 5542 5530 5519 5510 5502 5497 5494 5494
5832 5829 5827 5824 5820 5817 5814 5810 5804 5798 5793 5787 5781 5774 5767 5759 5750 5740 5730 5720 5710 5699 5689 5679 5669 5659 5649 5639 5629 5618 5607 5595 5583 5571 5559 5547 5535 5524 5514 5504 5497 5491 5489 5488
5829 5826 5824 5819 5815 5813 5809 5803 5798 5793 5787 5781 5775 5768 5761 5753 5743 5734 5724 5714 5703 5693 5682 5672 5662 5653 5643 5633 5622 5611 5600 5588 5577 5565 5553 5542 5532 5521 5511 5502 5495 5489 5487 5486
5825 5823 5818 5814 5811 5807 5803 5798 5793 5788 5782 5776 5770 5763 5755 5747 5737 5727 5717 5707 5697 5687 5676 5666 5656 5646 5637 5627 5616 5606 5595 5583 5572 5561 5550 5539 5529 5519 5510 5501 5495 5490 5487 5486
5818 5816 5812 5809 5805 5802 5797 5793 5788 5782 5777 5771 5764 5757 5749 5741 5731 5721 5711 5701 5691 5681 5670 5660 5650 5641 5631 5622 5612 5601 5590 5579 5569 5558 5547 5537 5528 5519 5510 5502 5496 5491 5488 5487
5813 5810 5807 5804 5800 5796 5792 5787 5782 5777 5771 5765 5759 5751 5743 5735 5725 5716 5705 5695 5685 5675 5665 5655 5646 5636 5627 5618 5608 5598 5587 5576 5566 5556 5546 5536 5527 5519 5511 5504 5498 5494 5491 5489
5808 5805 5802 5799 5795 5791 5786 5782 5777 5771 5765 5759 5752 5745 5737 5728 5719 5710 5700 5690 5680 5670 5660 5651 5641 5632 5623 5614 5605 5595 5585 5575 5564 5554 5545 5536 5527 5519 5512 5506 5500 5496 5493 5491
5802 5799 5796 5793 5789 5785 5780 5776 5771 5765 5759 5753 5746 5739 5731 5723 5714 5704 5694 5684 5675 5665 5656 5647 5638 5629 5620 5611 5602 5593 5583 5573 5563 5554 5544 5536 5528 5520 5513 5507 5502 5498 5494 5493
5795 5793 5790 5786 5783 5778 5774 5769 5764 5759 5753 5747 5740 5733 5725 5717 5708 5699 5689 5680 5670 5661 5652 5643 5634 5626 5618 5609 5600 5591 5582 5573 5563 5554 5545 5536 5528 5521 5515 5508 5503 5499 5496 5494
5789 5786 5783 5779 5776 5772 5767 5762 5757 5752 5746 5740 5733 5726 5719 5711 5703 5694 5685 5676 5666 5657 5648 5640 5631 5623 5615 5607 5599 5591 5582 5573 5563 5554 5546 5537 5529 5522 5516 5510 5504 5500 5497 5495
5781 5778 5775 5772 5768 5764 5760 5755 5750 5745 5739 5733 5726 5720 5712 5705 5698 5690 5681 5672 5663 5654 5645 5637 5629 5621 5613 5606 5598 5590 5582 5573 5565 5556 5547 5539 5531 5524 5517 5511 5506 5501 5498 5496
5773 5771 5768 5764 5761 5756 5752 5747 5742 5737 5731 5726 5719 5713 5707 5700 5693 5685 5676 5667 5659 5650 5642 5634 5627 5619 5612 5604 5597 5590 5583 5575 5566 5558 5549 5541 5533 5526 5520 5513 5507 5503 5499 5497
5765 5763 5760 5756 5752 5748 5744 5739 5734 5729 5724 5718 5713 5707 5701 5695 5688 5681 5673 5664 5655 5647 5639 5631 5624 5617 5610 5603 5597 5590 5583 5576 5568 5560 5552 5544 5537 5529 5522 5516 5510 5505 5501 5499
5756 5753 5750 5747 5743 5739 5735 5731 5726 5722 5717 5711 5706 5700 5695 5689 5682 5676 5668 5660 5652 5644 5636 5628 5621 5615 5608 5602 5596 5590 5584 5578 5570 5563 5556 5548 5541 5533 5527 5521 5515 5510 5505 5502
5745 5743 5740 5737 5733 5730 5726 5722 5718 5714 5709 5704 5699 5693 5688 5682 5677 5670 5663 5656 5649 5641 5634 5626 5620 5613 5607 5601 5596 5590 5585 5579 5573 5566 5559 5552 5546 5539 5532 5526 5521 5516 5512 5508
5733 5731 5729 5726 5723 5720 5716 5713 5709 5705 5700 5696 5691 5686 5681 5676 5671 5665 5658 5651 5645 5637 5630 5624 5617 5611 5605 5600 5595 5590 5586 5581 5575 5569 5563 5557 5551 5545 5539 5533 5528 5524 5520 5516
5721 5718 5716 5714 5711 5709 5706 5703 5699 5695 5691 5687 5683 5679 5674 5669 5664 5659 5653 5647 5640 5634 5627 5621 5615 5609 5604 5599 5594 5590 5586 5581 5577 5572 5567 5561 5556 5551 5546 5541 5536 5532 5528 5525
5706 5705 5703 5701 5699 5697 5694 5692 5689 5685 5682 5678 5674 5670 5666 5662 5657 5653 5648 5642 5636 5630 5624 5618 5612 5607 5602 5597 5593 5589 5585 5582 5578 5574 5570 5565 5561 5557 5552 5548 5544 5540 5537 5534
5691 5690 5689 5687 5686 5684 5683 5680 5677 5675 5672 5669 5666 5662 5658 5655 5650 5646 5641 5636 5631 5626 5620 5614 5609 5604 5599 5595 5591 5588 5585 5582 5579 5576 5572 5569 5565 5561 5558 5554 5551 5548 5545 5543
5674 5674 5673 5672 5672 5671 5670 5667 5665 5664 5661 5659 5656 5653 5650 5646 5643 5639 5635 5631 5626 5621 5616 5611 5606 5601 5597 5593 5589 5586 5584 5581 5579 5577 5574 5571 5568 5565 5563 5560 5557 5554 5552 5550
5657 5656 5656 5656 5657 5656 5655 5654 5653 5651 5650 5648 5646 5643 5641 5638 5635 5632 5628 5625 5621 5616 5611 5607 5602 5598 5594 5590 5587 5584 5582 5580 5579 5577 5575 5573 5571 5568 5566 5564 5562 5560 5558 5557
5638 5638 5639 5639 5640 5640 5639 5639 5639 5639 5638 5636 5635 5633 5631 5629 5627 5624 5621 5618 5614 5610 5606 5602 5598 5594 5590 5587 5584 5582 5580 5578 5577 5576 5575 5573 5572 5571 5569 5567 5566 5565 5563 5562
Wind_Speed
8 10 12 13 13 14 15 16 18 20 22 25 28 31 34 36 38 41 42 44 45 46 45 44 44 44 43 43 43 44 46 48 49 51 53 54 55 55 56 56 56 55 56 58
11 13 15 15 15 16 17 18 19 22 24 27 29 32 35 37 40 42 44 45 46 46 45 44 44 43 42 43 43 45 46 48 50 52 52 53 54 54 52 51 50 51 51 53
14 16 16 17 16 17 19 20 22 24 26 29 30 34 37 39 41 44 45 46 46 46 46 45 44 43 43 43 44 46 48 50 51 52 51 52 51 50 48 46 45 44 45 47
16 17 18 17 17 18 19 21 23 25 28 29 31 35 37 40 42 44 46 47 47 47 46 45 44 43 43 44 45 46 48 50 51 50 49 49 49 47 44 41 38 37 38 39
18 19 18 17 17 18 20 21 24 26 28 30 32 36 39 41 44 47 48 49 49 48 47 46 44 44 44 44 45 46 48 49 50 49 48 47 46 43 39 36 32 30 29 31
19 19 18 19 18 20 22 23 25 27 29 31 33 36 39 43 46 48 50 50 50 49 48 46 44 44 44 44 45 46 48 49 49 47 46 45 43 40 37 32 28 24 22 23
19 19 20 20 21 22 24 26 27 29 31 33 35 38 41 44 47 49 50 50 50 49 48 47 44 43 44 44 45 46 47 47 47 45 44 44 41 38 35 29 24 19 16 16
18 19 21 21 22 23 24 26 28 30 32 34 37 39 42 45 48 50 50 50 49 48 48 46 44 43 44 44 45 46 46 46 45 43 43 41 40 37 33 28 22 16 11 10
20 21 22 22 23 24 25 27 28 30 32 35 38 41 44 46 49 50 51 50 49 48 47 46 44 43 43 44 44 45 45 44 43 42 41 39 37 35 32 26 20 15 9 5
21 21 22 23 24 25 26 27 29 31 33 36 39 42 45 47 49 50 50 49 48 47 46 45 43 43 42 43 43 44 44 43 42 40 39 37 35 33 30 26 20 14 9 4
21 21 22 23 24 25 26 28 30 32 34 37 40 44 46 49 50 50 50 49 48 47 46 44 42 42 41 41 42 43 43 42 41 39 38 35 33 31 28 25 20 14 8 3
21 22 22 23 24 26 27 29 31 33 36 39 42 45 48 49 49 50 50 48 48 47 45 43 42 41 40 40 41 42 42 41 40 38 36 34 32 29 26 24 20 15 9 4
21 21 22 23 25 27 29 31 33 35 38 41 44 46 48 48 49 49 49 48 47 45 44 42 41 40 39 39 40 40 40 40 39 37 35 33 30 28 25 22 19 15 10 6
21 22 23 25 26 28 31 33 35 38 40 43 45 46 46 47 47 48 48 48 46 44 43 41 40 39 38 37 38 38 39 38 37 36 35 32 29 26 24 21 18 14 10 6
23 24 25 27 29 31 33 36 38 40 42 44 45 45 44 45 46 48 48 47 46 44 42 40 39 38 36 35 36 36 37 37 36 35 34 32 29 25 23 21 18 14 10 6
26 27 28 30 31 34 36 38 40 42 43 44 45 44 43 43 45 47 48 47 45 43 42 39 37 36 35 33 34 34 35 35 35 34 34 32 28 25 23 20 18 13 9 5
29 30 32 33 34 36 38 40 41 42 43 44 43 42 41 42 44 46 47 46 45 43 41 39 36 35 34 32 32 32 33 34 34 34 33 32 29 26 24 21 18 15 10 5
34 35 35 36 37 38 40 40 41 41 42 42 41 40 40 41 43 44 45 45 44 43 41 39 36 34 33 31 29 29 31 31 32 32 31 31 29 27 25 21 19 17 12 7
38 38 38 38 39 39 39 39 40 40 41 41 40 39 40 40 41 42 44 43 42 41 40 38 35 33 31 29 27 27 28 29 30 30 30 29 28 27 24 22 20 18 15 11
41 40 39 39 40 39 39 38 39 39 40 40 39 39 39 40 40 41 42 41 40 40 38 36 33 31 30 28 26 24 25 26 27 27 28 28 27 26 24 23 22 21 20 17
43 42 41 40 39 39 38 38 39 39 40 39 38 38 39 39 39 39 39 39 39 39 37 35 32 30 28 26 24 22 22 22 24 24 25 25 25 25 24 24 23 22 21 20
44 43 42 41 40 39 39 38 38 39 39 39 38 38 38 38 38 38 37 37 37 37 36 34 32 29 27 24 22 20 19 19 20 21 22 23 23 22 22 22 22 22 21 20
46 44 43 43 41 41 39 37 37 39 39 38 37 37 37 36 36 35 35 35 36 35 34 32 30 28 25 23 20 18 17 16 17 17 18 19 20 20 20 20 21 21 20 20
48 47 46 45 43 41 39 37 38 39 39 38 38 38 36 35 34 33 33 33 34 34 33 31 29 27 24 21 19 17 15 14 14 14 15 15 16 17 17 17 18 19 19 19
52 50 49 47 44 41 40 39 40 40 39 38 37 36 35 33 32 32 32 32 32 32 31 30 28 25 23 20 17 15 13 11 11 11 11 12 13 14 14 15 15 16 16 16
54 53 51 48 45 42 41 41 41 39 37 37 37 36 34 33 31 30 30 30 30 30 29 29 27 24 22 19 16 14 12 9 8 8 8 8 9 10 11 12 12 13 14 14
56 54 53 50 47 45 43 42 41 39 37 36 35 35 34 33 30 29 29 29 29 28 28 27 26 23 21 18 16 13 11 9 7 6 6 5 5 6 7 8 9 9 10 11
Wind_Direction
330 327 328 329 329 328 327 326 326 327 329 331 333 333 335 335 335 335 334 333 332 331 329 327 325 322 320 319 318 317 316 315 313 311 309 306 303 300 295 290 283 275 267 260
328 326 323 324 323 323 322 323 325 327 329 331 332 332 334 335 336 336 336 335 333 332 330 329 326 324 322 322 321 321 321 319 318 316 313 310 307 304 299 293 286 277 270 261
324 323 321 319 319 320 320 322 325 327 329 331 332 332 335 336 337 337 336 336 334 333 332 331 328 326 326 325 324 324 325 323 322 321 318 315 313 310 305 298 289 280 271 262
320 319 319 316 316 316 318 321 325 327 328 330 331 332 335 336 337 337 337 337 335 334 334 333 331 330 329 328 327 327 328 327 326 325 324 321 319 316 311 305 294 284 273 262
319 318 316 312 314 317 320 324 325 326 328 329 331 332 335 337 337 337 338 338 336 335 336 335 333 332 332 331 330 330 331 330 330 329 329 328 327 324 320 313 303 290 276 262
316 316 314 315 318 320 322 324 327 328 329 331 333 334 336 337 337 337 337 337 337 336 336 336 335 334 334 333 333 334 334 333 333 333 333 334 334 332 329 322 313 299 279 264
312 314 313 315 319 321 324 326 329 330 332 333 334 336 336 337 337 337 337 337 337 336 336 337 336 336 336 336 336 337 337 337 337 337 337 338 338 338 337 333 325 312 289 266
310 311 310 315 318 321 323 326 328 331 332 333 334 335 336 336 337 337 338 338 337 337 337 337 337 338 338 339 339 340 340 341 341 341 341 342 343 344 343 342 337 330 308 271
308 308 309 314 317 320 323 326 328 330 332 333 334 334 335 336 337 338 338 338 338 337 337 338 338 339 340 341 341 342 343 344 344 345 345 345 346 348 349 348 345 341 330 295
306 306 308 312 316 320 323 326 328 329 331 332 333 334 335 336 338 338 338 338 338 338 338 339 340 340 341 342 344 345 345 346 346 347 347 347 348 349 352 353 351 346 340 308
307 306 307 311 315 319 322 324 326 328 330 331 332 333 335 337 338 339 339 339 339 339 339 340 341 341 341 343 345 347 347 347 348 348 348 348 349 350 352 355 357 355 353 328
308 307 309 312 315 319 321 324 326 327 329 330 331 333 335 337 339 340 340 340 339 339 339 340 342 342 342 344 346 348 349 350 350 350 350 350 350 351 352 354 355 355 352 337
305 306 309 312 316 318 321 323 325 326 328 329 331 333 335 337 340 341 342 341 340 339 339 341 342 343 344 345 347 349 351 352 353 353 353 353 353 353 354 354 355 353 350 338
305 308 311 313 316 318 319 321 323 325 327 329 330 333 335 338 341 343 343 342 341 340 340 341 343 344 345 347 349 351 353 355 356 356 357 357 356 356 356 357 355 351 348 340
307 310 311 313 315 316 318 320 322 323 326 328 330 332 334 338 341 343 344 343 342 341 341 342 343 345 346 347 350 352 354 357 358 359 0 0 359 358 357 357 357 353 349 337
307 310 311 312 313 314 316 318 320 322 324 326 328 330 332 335 339 342 344 344 343 342 342 342 343 344 346 347 350 353 355 358 0 1 3 4 4 3 2 2 359 357 352 338
305 307 308 310 311 312 314 316 317 320 322 324 326 328 329 333 337 341 343 344 344 343 342 342 342 344 347 348 350 354 356 359 2 4 5 7 9 9 9 9 8 6 6 9
300 302 305 306 308 309 311 313 314 317 319 322 323 325 327 330 334 338 341 343 343 343 342 342 342 344 346 348 350 354 357 0 4 7 8 9 11 14 16 19 22 23 26 37
296 298 300 301 302 304 307 309 311 314 316 318 320 322 325 328 332 336 339 341 342 342 342 342 342 343 345 348 350 352 356 0 5 9 11 13 17 21 24 27 29 33 40 48
290 292 294 296 297 300 303 304 307 310 313 314 317 319 321 324 329 333 336 339 341 341 341 341 341 342 344 346 349 351 355 360 5 9 13 17 22 26 31 35 37 40 46 54
287 289 291 292 294 296 298 300 302 305 309 311 313 316 319 321 325 330 334 337 339 340 340 340 340 341 343 345 347 350 353 359 4 9 14 20 25 30 36 41 45 48 52 58
285 287 288 289 291 293 295 297 298 300 305 308 310 313 316 319 323 327 331 334 337 338 338 339 339 340 341 343 344 348 352 357 3 8 15 21 27 33 38 43 49 54 58 63
283 284 285 286 288 289 291 292 292 295 300 304 306 310 313 316 320 324 328 331 334 336 336 337 338 338 339 340 341 344 348 354 0 7 14 21 28 35 41 47 53 60 65 69
279 280 281 282 283 285 286 285 285 290 295 298 302 306 309 312 316 320 324 328 331 334 335 335 335 335 337 337 337 339 344 349 357 6 13 20 29 36 43 49 56 62 68 72
277 277 278 279 280 279 278 279 282 286 289 293 297 300 303 307 312 316 320 324 327 330 332 332 332 332 333 334 333 334 337 342 349 359 10 20 28 35 42 50 57 63 67 73
274 275 276 277 275 274 275 276 278 281 286 288 291 295 298 302 307 311 314 318 323 326 329 330 329 329 329 330 330 328 327 329 336 345 357 12 24 32 40 49 59 67 70 72
273 273 273 273 272 273 274 275 276 279 281 283 286 290 291 295 301 305 309 313 319 322 325 327 327 325 324 325 325 323 317 313 315 323 336 353 14 30 40 48 59 70 77 78